User: anonymous   Login
Location: Newark
(46.5669°N, 0.8644°E)
Time: 22:00:32
(UTC+00:00)
Language:

Hubble Space Telescope - Orbit

View from above orbital plane
View from above orbital plane
View from above satellite
View from above satellite

Ground track
Ground track

The orbit data is extracted from the following two-line orbital elements,

1 20580U 90037B   20052.33315427  .00000456  00000-0  16758-4 0  9997
2 20580  28.4708  14.2840 0002447 269.1057 225.4933 15.09341264438347
Epoch (UTC): 21 February 2020 07:59:44
Eccentricity: 0.0002447
inclination: 28.4708°
perigee height: 536 km
apogee height: 540 km
right ascension of ascending node: 14.2840°
argument of perigee: 269.1057°
revolutions per day: 15.09341264
mean anomaly at epoch: 225.4933°
orbit number at epoch: 43834

The dashed part of the orbit path shows where the satellite is in the earth's shadow,  

DLR